Reflectivity
-20 -20 -20 -20 -20 -20 -20 -20 -20 -20 -20 -20 -20 -20 17 -12 -20 -20 -20 -20 -20 5 3 -10 2 16 7 3 1 4 -1 -2 4 7 4 -20 -13 -20 -20 -20 -20 -20 -20
-20 -20 -20 -20 -20 -20 -20 -20 -20 -20 27 22 18 23 12 -0 -17 -20 -20 -20 -20 -20 -3 -8 9 16 7 6 -9 -3 1 5 7 -14 1 -20 -9 -20 -20 -20 -20 -20 -20
-20 -20 -20 -20 -20 -20 -20 -20 -20 -20 -19 10 30 32 26 23 -4 -20 -20 -20 -20 -20 -20 -10 6 17 8 2 -17 2 3 8 -2 -19 4 -20 -20 -20 -20 -20 -20 -20 -20
-20 -20 -20 -20 -20 -20 -20 -20 -20 -20 -20 -20 -3 6 -9 23 21 -20 -20 -20 -20 -20 -20 -20 6 10 7 5 5 4 1 6 4 -2 -2 -20 -20 -20 -20 -20 -20 -20 -20
-20 -20 -20 -20 -20 -20 -20 -20 -20 -20 -20 -20 -20 -4 1 22 23 -20 -20 -20 -20 -20 -20 -20 9 9 8 8 6 3 -3 7 13 -1 -20 -20 -20 -20 -20 -20 -20 -20 -20
11 14 12 13 -20 -20 -10 -4 -20 -4 -16 -20 5 -2 8 19 17 -20 -20 -20 -20 -20 -20 -20 -5 -8 -20 -20 -1 6 8 2 2 -11 -14 -20 -20 -20 -20 -20 -20 -20 -20
13 16 12 9 -4 -18 -20 32 -20 -20 -20 -5 -10 10 9 21 19 6 3 -20 -20 -20 -20 -20 -20 -20 -20 -20 -3 4 14 3 5 14 13 -20 -20 -20 -20 -20 -20 -20 -20
-20 3 -13 31 19 13 5 -17 -6 15 -20 -19 -12 -4 22 22 15 2 -10 -7 -20 -20 -20 -20 -20 -20 -20 -20 -20 -15 6 18 13 18 -17 -20 -20 -20 -20 -20 -20 -20 -15
-20 14 -20 -19 -10 32 -16 -4 11 6 14 11 -19 -19 6 22 13 24 15 -3 1 -20 -20 -20 -20 -20 -20 -20 -20 -20 -20 11 5 -16 -20 -20 -20 -6 -5 -4 7 -7 -20
-17 28 19 12 28 -7 -20 9 15 13 12 11 -18 -20 -20 -20 -20 -17 -7 20 -9 -20 -20 -20 -20 -20 -20 -20 -20 -20 -20 -20 6 13 13 11 13 2 6 -20 -20 -20 -5
13 17 17 17 13 10 13 10 13 20 9 12 4 -8 -20 -20 -20 -20 -19 0 26 -20 -20 -20 -20 -20 -20 -20 -20 -20 -20 -20 -20 -20 -20 -20 -20 -20 -20 -20 -19 6 14
18 17 10 16 19 20 15 3 18 19 12 -2 7 8 -15 -17 -20 -20 -20 8 30 0 -20 -20 -20 -20 -20 -20 -20 -20 -20 -20 -20 -20 -20 -20 -20 -20 -14 9 7 5 15
7 16 16 5 16 17 5 11 0 15 15 3 -11 6 -10 -5 -8 -18 13 8 29 17 -20 -20 -20 -20 -20 -20 -20 -20 -20 -20 -20 -20 -20 -20 -19 11 5 1 11 12 3
-3 13 15 17 14 18 17 26 13 15 -2 2 16 4 -11 21 20 16 26 7 -7 20 -11 -20 -20 -20 -20 -20 -20 -20 -20 -20 -20 -20 -20 9 -10 -11 -20 6 -18 13 7
17 -9 7 6 12 13 20 5 16 4 -4 15 -4 -17 -2 4 20 17 32 17 20 4 -19 -20 -20 5 -1 -13 2 -20 -20 -4 -20 9 -20 6 -1 -6 -13 24 10 12 13
-9 7 11 14 17 21 30 24 13 -2 2 11 -5 -16 15 12 30 32 33 28 30 16 13 -20 -12 3 -20 -10 7 -20 -10 9 3 -12 7 4 -13 -20 16 7 17 -15 -3
26 18 5 -1 2 21 27 13 5 11 9 18 18 11 22 8 28 32 26 28 24 23 21 -12 1 -3 -20 -13 -2 -19 4 -20 -6 6 3 20 -20 -10 16 12 -3 -2 7
14 19 7 -16 -14 6 12 9 9 14 -2 -7 -3 24 10 14 37 29 23 24 22 26 -6 -20 -1 -2 -20 -14 0 -4 21 17 20 4 15 29 -9 16 23 20 17 10 -3
-6 14 28 -6 -15 -1 -20 20 -13 -11 -0 -7 -3 -14 0 0 31 33 36 25 27 29 13 -20 1 -18 -5 -4 1 27 14 30 24 15 15 39 22 26 18 26 14 12 -18
11 22 15 26 -3 -4 -20 -20 -12 -15 -20 -12 -4 -10 -11 3 21 32 35 34 35 28 26 9 24 7 6 14 14 14 35 24 22 23 34 29 28 24 27 26 22 -13 8
-6 14 26 24 21 -19 11 -20 9 14 -4 8 -20 -10 -18 8 21 30 29 35 33 28 31 24 14 10 27 18 23 23 24 25 10 3 18 33 23 26 27 25 13 9 -5
-20 12 17 28 -9 -9 14 11 -9 -20 -20 -20 -20 -20 -15 14 0 -16 27 27 33 26 23 20 25 -5 20 34 31 30 29 14 20 11 24 24 19 19 17 11 17 1 -20
-2 -15 10 11 24 17 12 1 1 -20 2 -20 -20 -18 -13 -20 19 -7 17 30 28 30 31 29 10 -2 25 19 27 33 26 23 25 19 23 26 22 16 9 4 8 -10 -20
-15 -20 -2 22 49 25 14 -6 10 -4 -3 -14 9 -7 -20 -14 12 12 36 24 31 30 31 28 28 32 31 29 29 27 31 34 31 28 29 26 14 7 7 -1 -9 -19 -20
-15 -7 4 -3 26 -4 8 -4 6 -19 -18 -20 15 -13 -0 25 22 16 34 30 36 35 29 27 33 32 32 32 29 31 30 30 31 31 30 20 10 9 -6 -20 -20 -20 -20
-20 -20 -3 25 -19 -6 12 0 -6 -20 -13 5 15 15 14 16 22 11 18 29 27 35 27 27 32 32 29 29 33 25 32 29 30 22 17 15 9 -17 -18 -20 -20 -20 -20
Wind_Speed
9 7 6 6 6 8 7 7 5 4 4 4 5 5 7 9 8 5 4 11 11 16 19 18 17 17 18 18 17 17 17 16 16 16 16 15 13 13 12 10 10 9 9
9 8 7 7 7 8 8 7 6 6 3 1 4 4 3 7 8 7 4 7 12 13 15 18 18 18 18 17 17 17 16 16 16 15 15 14 13 12 10 9 8 7 6
9 10 8 8 8 7 9 6 4 4 5 4 8 7 4 6 8 8 6 5 8 11 11 13 16 17 18 18 17 17 16 15 16 15 14 14 12 11 9 8 7 5 4
11 10 8 8 8 7 8 7 7 6 5 5 4 5 4 6 9 9 7 5 5 6 9 12 14 17 16 18 18 17 16 14 15 15 14 13 12 11 9 7 6 5 3
12 10 9 8 9 8 8 8 6 8 7 5 4 4 3 5 7 8 8 6 6 5 4 9 12 13 14 16 17 17 17 16 15 14 13 13 12 11 10 8 7 6 4
13 11 9 11 11 9 8 8 9 7 7 7 5 5 3 3 6 8 10 8 6 8 6 6 6 8 13 14 15 16 17 16 15 15 13 12 11 11 10 9 8 7 5
13 12 8 10 11 12 12 10 5 9 5 5 5 2 3 2 5 6 7 8 8 8 7 6 4 4 6 13 13 15 17 16 15 14 13 13 12 11 11 9 8 7 7
12 12 12 10 12 10 11 12 12 6 3 8 5 5 4 4 2 4 6 9 10 8 8 8 7 6 5 5 6 13 15 15 15 13 13 13 12 12 11 10 9 8 8
10 13 14 12 13 11 12 13 12 13 9 8 9 5 4 5 5 5 10 9 10 8 8 8 9 8 7 5 7 9 10 11 14 15 16 14 13 12 10 6 1 4 3
10 12 13 13 14 10 12 13 12 13 11 10 8 9 3 5 7 5 5 9 9 10 10 8 9 8 8 6 9 10 12 10 9 14 12 9 9 8 7 5 4 2 5
11 10 13 13 13 11 12 14 13 12 10 10 10 10 9 3 11 6 9 6 5 8 9 9 9 7 8 8 7 8 12 11 8 10 11 10 9 8 8 8 8 12 12
6 9 11 12 11 11 12 11 13 14 12 9 10 11 13 10 10 9 8 12 12 9 7 7 6 7 6 6 7 10 14 11 10 11 12 12 12 11 11 14 15 14 14
3 6 10 11 10 11 11 11 12 12 12 12 13 11 10 11 7 10 8 10 10 3 3 4 3 3 4 4 4 9 13 15 14 13 13 14 16 16 18 17 14 14 14
7 10 11 11 12 12 11 11 9 10 12 11 13 12 10 11 7 8 11 13 10 3 3 5 3 4 4 4 10 19 10 17 18 18 17 17 20 20 18 16 15 13 14
7 10 12 12 12 13 12 13 10 12 11 12 13 13 12 10 10 10 11 11 13 10 6 4 4 5 6 4 8 11 12 18 21 20 20 18 19 18 17 17 16 16 13
7 9 11 12 12 13 13 13 11 11 13 10 10 14 14 11 12 10 11 12 11 11 10 2 3 5 8 7 11 12 14 20 20 20 19 18 19 18 17 16 16 14 14
9 9 11 11 11 11 12 12 11 10 12 11 11 12 13 17 15 13 11 11 10 8 10 3 3 8 7 11 10 10 10 11 11 18 18 19 18 17 15 14 15 14 12
6 10 11 11 10 10 10 10 10 9 11 12 12 11 12 11 16 16 11 14 13 8 9 12 10 4 5 8 10 12 8 7 9 16 16 14 19 17 15 11 15 13 11
6 10 11 11 11 11 11 10 10 10 10 10 10 11 12 14 13 11 13 11 10 7 11 11 9 4 4 7 8 8 9 7 7 17 15 13 14 15 15 12 12 10 9
10 10 12 12 12 10 10 10 10 11 10 10 10 12 12 11 13 18 12 13 11 12 12 12 9 8 7 7 6 10 6 5 7 7 6 10 10 13 13 12 10 9 8
12 10 13 13 11 10 9 11 11 11 10 10 8 10 11 12 13 11 11 10 14 13 12 12 11 9 7 10 12 6 5 7 4 2 5 4 4 4 6 10 8 9 6
14 11 13 16 15 10 13 15 13 11 11 10 10 8 7 11 13 17 13 18 17 16 16 11 10 14 14 12 8 10 9 6 5 3 5 4 5 5 5 4 10 9 5
13 16 12 16 15 9 14 16 15 8 8 9 8 6 5 4 7 5 14 21 21 24 21 17 17 15 14 17 16 12 9 6 4 8 8 3 3 4 4 6 11 7 6
13 14 8 6 9 5 8 12 11 6 6 4 3 2 4 2 4 12 10 9 10 9 10 9 15 12 6 16 13 9 10 12 8 6 2 4 2 2 2 4 10 6 5
13 8 6 8 8 6 10 14 12 8 7 6 5 4 4 5 6 15 15 14 12 11 17 22 21 20 23 21 20 16 9 13 5 3 1 4 3 3 3 2 2 5 3
12 3 4 5 9 9 10 12 13 8 8 6 6 6 9 9 12 7 12 18 17 12 17 18 17 20 19 18 14 10 13 12 9 2 4 4 6 4 3 1 1 2 3
Wind_Direction
179 171 174 174 166 172 175 181 176 172 171 205 140 129 158 148 145 146 163 166 169 163 164 160 162 157 159 156 153 149 150 148 146 137 129 127 126 122 124 129 124 117 108
183 175 171 179 173 176 178 176 167 164 149 114 63 74 158 148 149 140 144 162 167 166 170 165 167 169 165 159 155 155 156 153 146 139 139 135 138 133 138 139 131 121 115
182 174 176 180 178 177 168 153 154 164 165 176 176 144 176 163 151 155 150 160 169 163 167 161 171 174 168 162 162 163 161 158 148 145 145 142 140 146 155 154 145 139 133
181 176 179 182 172 170 169 171 167 165 160 155 166 157 157 164 166 164 161 157 169 167 163 166 179 173 172 168 167 169 164 158 158 157 157 152 156 163 171 169 170 176 173
182 181 181 179 168 173 175 175 173 171 169 156 160 136 133 164 171 162 167 166 165 154 143 179 173 171 170 170 175 170 167 168 168 165 163 166 171 178 183 189 196 208 209
186 188 185 177 172 169 177 177 176 180 171 162 165 160 150 169 179 176 178 169 167 164 153 163 174 174 172 177 185 176 171 176 177 175 175 180 185 193 197 203 211 217 225
190 188 192 181 175 177 180 180 161 172 155 149 123 161 182 153 174 192 180 173 171 173 163 160 160 170 184 180 188 182 181 181 185 182 186 192 198 204 207 213 226 235 249
186 178 180 191 179 176 166 175 177 173 150 172 167 139 189 188 207 189 197 190 177 173 174 176 175 170 172 185 178 192 193 190 191 189 193 201 206 210 214 222 235 249 267
184 185 180 182 180 178 172 175 182 179 179 185 183 156 148 202 152 196 197 197 176 178 178 177 185 181 176 176 178 195 204 196 185 188 203 205 208 213 225 225 167 71 59
198 179 181 181 180 182 182 184 183 188 179 187 184 219 192 149 170 152 202 208 179 179 177 182 188 188 183 179 193 193 195 202 191 209 213 178 157 139 130 136 135 116 111
203 183 173 182 187 186 186 181 178 192 195 183 188 194 217 205 197 164 173 185 191 194 181 182 183 183 184 189 195 198 190 196 188 150 146 149 150 151 149 144 135 114 101
200 182 178 182 182 179 177 181 184 192 191 197 196 199 197 199 196 187 173 180 189 187 176 183 177 183 177 177 177 186 187 176 143 135 134 136 141 142 138 119 114 113 105
189 191 180 185 186 183 181 182 188 194 198 201 194 202 203 209 202 203 183 170 174 134 127 56 52 90 111 114 127 129 141 136 131 123 117 111 108 108 107 108 104 100 98
212 194 188 188 187 180 183 184 191 196 202 200 205 206 203 210 199 200 191 170 167 147 133 136 50 82 88 106 120 112 110 117 114 109 103 102 104 105 106 104 102 99 96
213 194 196 191 185 182 187 184 195 198 207 206 208 207 212 209 206 199 205 186 174 170 174 169 129 101 99 101 106 104 105 106 105 105 108 110 109 108 108 106 107 102 97
201 192 193 196 188 187 196 196 202 204 203 207 212 217 215 211 198 192 195 189 191 184 172 118 98 130 121 103 106 105 108 104 104 108 111 114 113 111 110 114 114 110 106
212 196 192 188 180 190 195 195 199 197 203 211 213 221 222 224 209 183 191 186 183 188 153 100 94 126 109 125 115 103 105 103 106 109 114 118 113 110 110 116 116 113 107
245 204 199 183 180 178 178 187 197 200 208 215 227 231 227 217 200 189 184 183 185 185 146 140 140 130 107 125 117 112 110 109 117 114 111 119 118 117 115 120 115 116 109
254 224 201 191 188 186 183 194 201 213 213 220 222 218 225 218 208 194 182 176 179 148 147 143 139 139 120 137 115 96 107 105 110 119 125 131 129 124 123 127 120 121 119
265 229 203 204 191 181 188 189 203 210 212 220 219 218 218 213 205 189 173 181 169 147 145 147 132 141 139 141 128 136 133 123 115 126 125 124 143 138 136 126 132 131 124
293 239 214 199 197 185 185 185 204 210 212 215 212 214 216 208 198 199 192 169 159 147 153 149 145 144 138 159 162 154 129 119 101 98 137 161 165 170 143 150 146 142 144
313 250 219 200 190 188 183 190 193 202 205 209 216 210 204 206 204 195 189 157 155 158 156 157 161 167 164 173 139 147 146 141 161 201 155 158 182 174 169 153 158 159 160
309 289 230 214 183 187 171 181 193 196 198 207 208 195 197 214 195 147 186 158 156 161 166 165 166 172 162 177 151 150 168 146 131 141 141 137 136 137 164 155 163 166 167
307 291 222 175 132 124 164 178 164 121 103 85 67 83 155 146 155 138 102 105 117 119 146 158 168 163 158 156 161 139 141 108 92 120 148 119 158 129 122 156 166 149 141
306 289 275 155 143 141 117 131 123 111 100 81 69 73 111 97 96 152 129 117 96 87 83 96 102 116 126 137 132 120 135 130 119 165 115 112 156 147 130 132 99 111 57
289 304 350 283 127 123 131 131 125 125 113 104 79 73 96 107 99 141 150 136 119 119 116 108 95 95 100 112 119 126 143 138 119 129 201 122 162 149 147 162 178 59 20